ONEWEB-0624 (55165 NORAD) Tracking and Keplerian Element Data

This shows tracking and keplerian element data for the satellite.

Feedback or suggestion? Click here.




ElementValue
Catalog55165
NameONEWEB-0624
Epoch Orbit1120
Epoch Day84.87838298
Epoch Year2023
RAAN253.611
Inclination86.6257
Eccentricity0.0014079
Argument of Perigee339.9406
Mean Anonmoly20.1253
Mean Motion14.65929524
Decay Rate1.468E-05
L11 55165U 23004AB 23084.87838298 .00001468 00000+0 26393-3 0 9995
L22 55165 86.6257 253.6110 0014079 339.9406 20.1253 14.65929524 11205



Live tracking and technical data element details for ONEWEB-0624 (NORAD 55165). ONEWEB-0624 can be tracked NOW for your location showing map with azimuth and elevation plus other details from your city location.







IsCatalogInMostPopularTable: catalog: 55165, numindb: 10
Update: records affected: 1



GetName: 55165 ONEWEB-0624

Hit Count: updated at: Mon, 27 Mar 2023 08:01:26 GMT